Location: Alsip
(41.6689°N, 87.7387°W)
Time: 14:10:36
(UTC+00:00)

Cosmos 1271 Rocket - Pass Details

Date: 14 July 2020
Orbit: 497 x 546 km, 81.2° (Epoch: 04 August)

Event Time Altitude Azimuth Distance (km) Brightness Sun altitude
Rises 09:02:13 0° 354° (N) 2,620 6.9 -13.6°
Reaches altitude 10° 09:04:23 10° 358° (N) 1,723 6.0 -13.3°
Maximum altitude 09:08:06 59° 78° (ENE) 586 3.2 -12.8°
Drops below altitude 10° 09:11:47 10° 159° (SSE) 1,695 5.1 -12.3°
Sets 09:13:54 0° 163° (SSE) 2,572 6.0 -12.1°
